Weather History for Jackson, MN

Change the Weather History Date:

Monday, November 26, 2012

  Actual Average Record
Temperature  
Mean Temperature 19 °F -  
Max Temperature 26 °F 35 °F 64 °F (1998)
Min Temperature 12 °F 21 °F -9 °F (1996)
Degree Days  
Heating Degree Days 46    
Moisture  
Dew Point 8 °F    
Average Humidity 62    
Maximum Humidity 79    
Minimum Humidity 43    
Precipitation  
Precipitation 0.00 in - - ()
Sea Level Pressure  
Sea Level Pressure 30.33 in    
Wind  
Wind Speed 9 mph (NW)    
Max Wind Speed 20 mph    
Max Gust Speed 26 mph    
Visibility 10 miles    
Events      
Averages and records for this station are not official NWS values.
T = Trace of Precipitation, MM = Missing Value Source: NWS Daily Summary

Daily Weather History Graph

Daily Weather History Graph

Search for Another Location

Airport:

Trip Planner

Search our weather history database for the weather conditions in past years. The results will help you decide how hot, cold, wet, or windy it might be!

Date:

Astronomy

Nov. 26, 2012 Rise Set
Actual Time 7:28 AM CST 4:46 PM CST
Civil Twilight 6:56 AM CST 5:18 PM CST
Nautical Twilight 6:21 AM CST 5:53 PM CST
Astronomical Twilight 5:46 AM CST 6:27 PM CST
Moon 3:40 PM CST (11/26) 5:37 AM CST (11/26)
Length of Visible Light 10h 21m
Length of Day
9h 17m
Waxing Gibbous, 97% of the Moon is Illuminated
Nov 26
Waxing Gibbous
Nov 28
Full
Dec 6
Last Quarter
Dec 13
New
Dec 19
First Quarter

Hourly Weather History & Observations

Time (CST) Temp. Windchill Dew Point Humidity Pressure Visibility Wind Dir Wind Speed Gust Speed Precip Events Conditions
12:13 AM 26.6 °F 21.2 °F 17.6 °F 69% 30.17 in 10.0 mi North 4.6 mph - N/A   Scattered Clouds
12:33 AM 26.6 °F 21.2 °F 17.6 °F 69% 30.18 in 10.0 mi NNW 4.6 mph - N/A   Scattered Clouds
12:53 AM 24.8 °F 16.1 °F 17.6 °F 74% 30.18 in 10.0 mi NNW 8.1 mph - N/A   Scattered Clouds
1:13 AM 26.6 °F 18.2 °F 17.6 °F 69% 30.18 in 10.0 mi NNW 8.1 mph - N/A   Scattered Clouds
1:33 AM 26.6 °F 16.2 °F 17.6 °F 69% 30.19 in 10.0 mi NNW 11.5 mph - N/A   Scattered Clouds
1:53 AM 26.6 °F 16.2 °F 17.6 °F 69% 30.20 in 10.0 mi NNW 11.5 mph 17.3 mph N/A   Scattered Clouds
2:13 AM 26.6 °F 16.2 °F 15.8 °F 64% 30.20 in 10.0 mi NNW 11.5 mph 18.4 mph N/A   Scattered Clouds
2:33 AM 24.8 °F 15.3 °F 17.6 °F 74% 30.21 in 10.0 mi North 9.2 mph 17.3 mph N/A   Scattered Clouds
2:53 AM 23.0 °F 12.4 °F 15.8 °F 74% 30.22 in 10.0 mi NNW 10.4 mph - N/A   Mostly Cloudy
3:13 AM 23.0 °F 11.7 °F 14.0 °F 68% 30.23 in 10.0 mi NNW 11.5 mph 21.9 mph N/A   Overcast
3:33 AM 23.0 °F 13.1 °F 14.0 °F 68% 30.23 in 10.0 mi NNW 9.2 mph - N/A   Overcast
3:53 AM 21.2 °F 10.1 °F 12.2 °F 68% 30.24 in 10.0 mi NNW 10.4 mph 18.4 mph N/A   Overcast
4:13 AM 21.2 °F 9.5 °F 12.2 °F 68% 30.24 in 10.0 mi NNW 11.5 mph 19.6 mph N/A   Overcast
4:33 AM 21.2 °F 10.9 °F 10.4 °F 63% 30.25 in 10.0 mi North 9.2 mph - N/A   Overcast
4:53 AM 19.4 °F 6.6 °F 10.4 °F 68% 30.26 in 10.0 mi NNW 12.7 mph 20.7 mph N/A   Overcast
5:13 AM 19.4 °F 6.6 °F 10.4 °F 68% 30.27 in 10.0 mi North 12.7 mph 19.6 mph N/A   Overcast
5:33 AM 19.4 °F 6.6 °F 8.6 °F 63% 30.27 in 10.0 mi North 12.7 mph 21.9 mph N/A   Overcast
5:53 AM 17.6 °F 6.4 °F 8.6 °F 68% 30.28 in 10.0 mi NNW 9.2 mph - N/A   Mostly Cloudy
6:13 AM 17.6 °F 3.2 °F 6.8 °F 63% 30.29 in 10.0 mi NNW 15.0 mph 25.3 mph N/A   Clear
6:33 AM 15.8 °F 0.3 °F 5.0 °F 62% 30.30 in 10.0 mi NNW 16.1 mph 21.9 mph N/A   Clear
6:53 AM 14.0 °F -2.0 °F 5.0 °F 67% 30.30 in 10.0 mi NNW 16.1 mph 20.7 mph N/A   Clear
7:13 AM 14.0 °F 1.2 °F 5.0 °F 67% 30.33 in 10.0 mi NW 10.4 mph - N/A   Clear
7:33 AM 14.0 °F -2.0 °F 5.0 °F 67% 30.34 in 10.0 mi NNW 16.1 mph 21.9 mph N/A   Clear
7:53 AM 12.2 °F -3.7 °F 5.0 °F 73% 30.34 in 10.0 mi NNW 15.0 mph - N/A   Clear
8:13 AM 12.2 °F -4.3 °F 5.0 °F 73% 30.36 in 10.0 mi NNW 16.1 mph 24.2 mph N/A   Clear
8:33 AM 12.2 °F -3.1 °F 3.2 °F 67% 30.35 in 10.0 mi NNW 13.8 mph 26.5 mph N/A   Clear
8:53 AM 14.0 °F -0.8 °F 5.0 °F 67% 30.38 in 10.0 mi NNW 13.8 mph 26.5 mph N/A   Clear
9:13 AM 14.0 °F -1.4 °F 3.2 °F 62% 30.39 in 10.0 mi NNW 15.0 mph 23.0 mph N/A   Clear
9:33 AM 14.0 °F -0.8 °F 3.2 °F 62% 30.39 in 10.0 mi NNW 13.8 mph 23.0 mph N/A   Clear
9:53 AM 14.0 °F -3.4 °F 3.2 °F 62% 30.39 in 10.0 mi NW 19.6 mph - N/A   Clear
10:13 AM 14.0 °F 1.2 °F 3.2 °F 62% 30.40 in 10.0 mi NNW 10.4 mph 19.6 mph N/A   Clear
10:33 AM 15.8 °F 2.1 °F 5.0 °F 62% 30.41 in 10.0 mi NNW 12.7 mph - N/A   Clear
10:53 AM 17.6 °F 5.7 °F 5.0 °F 58% 30.41 in 10.0 mi NNW 10.4 mph 18.4 mph N/A   Clear
11:13 AM 17.6 °F 2.7 °F 5.0 °F 58% 30.40 in 10.0 mi NNW 16.1 mph 19.6 mph N/A   Clear
11:33 AM 19.4 °F 7.2 °F 5.0 °F 54% 30.40 in 10.0 mi NW 11.5 mph 18.4 mph N/A   Clear
11:53 AM 19.4 °F 7.9 °F 5.0 °F 54% 30.40 in 10.0 mi NNW 10.4 mph 19.6 mph N/A   Clear
12:13 PM 21.2 °F 8.9 °F 5.0 °F 50% 30.40 in 10.0 mi NNW 12.7 mph 17.3 mph N/A   Clear
12:33 PM 21.2 °F 10.9 °F 5.0 °F 50% 30.40 in 10.0 mi NNW 9.2 mph 17.3 mph N/A   Clear
12:53 PM 21.2 °F 9.5 °F 5.0 °F 50% 30.39 in 10.0 mi NW 11.5 mph - N/A   Clear
1:13 PM 21.2 °F 8.9 °F 5.0 °F 50% 30.38 in 10.0 mi NNW 12.7 mph 18.4 mph N/A   Clear
1:33 PM 23.0 °F 13.9 °F 5.0 °F 46% 30.38 in 10.0 mi NNW 8.1 mph 19.6 mph N/A   Clear
1:53 PM 23.0 °F 13.1 °F 5.0 °F 46% 30.38 in 10.0 mi NNW 9.2 mph 18.4 mph N/A   Clear
2:13 PM 23.0 °F 11.7 °F 5.0 °F 46% 30.38 in 10.0 mi WNW 11.5 mph 17.3 mph N/A   Clear
2:33 PM 23.0 °F 13.9 °F 5.0 °F 46% 30.37 in 10.0 mi NNW 8.1 mph - N/A   Clear
2:53 PM 24.8 °F 16.1 °F 5.0 °F 43% 30.37 in 10.0 mi NNW 8.1 mph - N/A   Clear
3:13 PM 24.8 °F 15.3 °F 5.0 °F 43% 30.37 in 10.0 mi NNW 9.2 mph - N/A   Clear
3:34 PM 23.0 °F 13.9 °F 5.0 °F 46% 30.37 in 10.0 mi WNW 8.1 mph - N/A   Clear
3:53 PM 23.0 °F 14.7 °F 5.0 °F 46% 30.37 in 10.0 mi NW 6.9 mph - N/A   Clear
4:14 PM 23.0 °F 13.9 °F 5.0 °F 46% 30.38 in 10.0 mi NW 8.1 mph - N/A   Clear
4:33 PM 23.0 °F 15.8 °F 5.0 °F 46% 30.38 in 10.0 mi NW 5.8 mph - N/A   Clear
4:53 PM 21.2 °F 16.4 °F 5.0 °F 50% 30.37 in 10.0 mi NW 3.5 mph - N/A   Clear
5:13 PM 19.4 °F 12.8 °F 5.0 °F 54% 30.38 in 10.0 mi NNW 4.6 mph - N/A   Clear
5:33 PM 19.4 °F - 5.0 °F 54% 30.38 in 10.0 mi Calm Calm - N/A   Clear
5:53 PM 17.6 °F - 5.0 °F 58% 30.37 in 10.0 mi Calm Calm - N/A   Clear
6:13 PM 19.4 °F - 5.0 °F 54% 30.37 in 10.0 mi Calm Calm - N/A   Clear
6:33 PM 19.4 °F - 5.0 °F 54% 30.37 in 10.0 mi Calm Calm - N/A   Clear
6:53 PM 19.4 °F 14.3 °F 6.8 °F 58% 30.37 in 10.0 mi South 3.5 mph - N/A   Clear
7:13 PM 17.6 °F 10.7 °F 6.8 °F 63% 30.37 in 10.0 mi South 4.6 mph - N/A   Clear
7:33 PM 17.6 °F 10.7 °F 8.6 °F 68% 30.37 in 10.0 mi SSW 4.6 mph - N/A   Clear
7:54 PM 17.6 °F 8.2 °F 6.8 °F 63% 30.37 in 10.0 mi South 6.9 mph - N/A   Clear
8:13 PM 14.0 °F 2.9 °F 6.8 °F 73% 30.37 in 10.0 mi South 8.1 mph - N/A   Clear
8:33 PM 14.0 °F 3.9 °F 6.8 °F 73% 30.37 in 10.0 mi SSW 6.9 mph - N/A   Clear
8:53 PM 14.0 °F 6.5 °F 5.0 °F 67% 30.37 in 10.0 mi SSW 4.6 mph - N/A   Clear
9:13 PM 14.0 °F 5.1 °F 8.6 °F 79% 30.36 in 10.0 mi SW 5.8 mph - N/A   Clear
9:33 PM 14.0 °F 5.1 °F 6.8 °F 73% 30.36 in 10.0 mi South 5.8 mph - N/A   Clear
9:53 PM 14.0 °F 3.9 °F 8.6 °F 79% 30.36 in 10.0 mi SSW 6.9 mph - N/A   Clear
10:13 PM 17.6 °F 8.2 °F 8.6 °F 68% 30.35 in 10.0 mi WSW 6.9 mph - N/A   Clear
10:33 PM 17.6 °F 9.3 °F 8.6 °F 68% 30.35 in 10.0 mi SW 5.8 mph - N/A   Clear
10:53 PM 14.0 °F 5.1 °F 8.6 °F 79% 30.34 in 10.0 mi SW 5.8 mph - N/A   Clear
11:13 PM 15.8 °F 5.1 °F 8.6 °F 73% 30.34 in 10.0 mi WSW 8.1 mph - N/A   Clear
11:33 PM 17.6 °F 7.3 °F 8.6 °F 68% 30.33 in 10.0 mi WSW 8.1 mph - N/A   Clear
11:53 PM 17.6 °F 7.3 °F 10.4 °F 73% 30.33 in 10.0 mi SW 8.1 mph - N/A   Clear